COSMOS 2460 (732) (36402 NORAD) Tracking and Keplerian Element Data

This shows tracking and keplerian element data for the satellite.

Feedback or suggestion? Click here.




ElementValue
Catalog36402
NameCOSMOS 2460 (732)
Epoch Orbit6519
Epoch Day198.30267076
Epoch Year2018
RAAN51.3506
Inclination65.594
Eccentricity0.0001975
Argument of Perigee61.0285
Mean Anonmoly75.88
Mean Motion2.13101639
Decay Rate-5.1E-07
L11 36402U 10007C 18198.30267076 -.00000051 00000-0 10000-3 0 9992
L22 36402 65.5940 51.3506 0001975 61.0285 75.8800 2.13101639 65195

Live tracking and technical data element details for COSMOS 2460 (732) (NORAD 36402). COSMOS 2460 (732) can be tracked NOW for your location showing map with azimuth and elevation plus other details from your city location.

Track the satellite on the map from your city or location and see movement details for azimuth, elevation, latitude, longitude, range, height, and movement on the map or in text.







IsCatalogInMostPopularTable: catalog: 36402, numindb: 32
Update: records affected: 1



GetName: 36402 COSMOS 2460 (732)

Hit Count: updated at: Wed, 18 Jul 2018 20:32:10 GMT